Starlink 32486

operational
NORAD ID: 61854 Int'l Des: 2024-202 Owner: SPXS Country: US Constellation: starlink
LEOCIRCULAR

About Starlink 32486

Description loading...

Live Position

Loading 3D Globe...

Upcoming Passes

Altitude History

Altitude vs Time

uPlot chart will show altitude changes over time

Two-Line Element Set

1 61854U 24202K 25312.68164819 .00000204 00000-0 16935-4 0 9994
2 61854 43.0031 201.1582 0000950 260.2660 99.8084 15.27567160 56832
Epoch: Nov 8, 2025 • Age: 42 hours

Current Status

Altitude 494.3 km
Velocity 7.62 km/s
Sub-Earth Point -39.41°S, 130.98°W
Launch Date Nov 7, 2024
Age 1 years
Type internet

Technical Details

Classification Payload
Mass 730.00 kg
Dry Mass 700.00 kg
Total Mass 730.00 kg
Length 0.30 m
Diameter 4.10 m
Span 29.00 m
Shape Box + pan
Manufacturer SPXS
Bus Type Starlink V2M
Phase Status In Orbit
Owner/State SPXS/US

Large Constellations

Loading constellations...